Powrót do katalogu

ONEWEB-0007

AktywnyŁącznośćPO
NORAD 44060·PAYLOAD·🇬🇧 United Kingdom

Wystrzelony Feb 27, 2019 z Guiana Space Centre

Loading…

Następne Przeloty (najbliższe 24 godziny)

TLE

ŚwieżeSource: CelesTrak SupGP

Epoka: Sep 14, 2026, 08:20 UTC

1 44060C 19010D   26257.34775880  .00003628  00000+0  96485-2 0  2578
2 44060  87.8983 241.4405 0002263  81.0006  21.5814 13.15546406    14

Śledź ONEWEB-0007 w czasie rzeczywistym z AllMySat

Download on the App Store